User: anonymous   Login
Location: Unspecified
(0.0000°N, 0.0000°E)
Time: 18:08:21
(UTC+00:00)
Language:

STARLINK-31047 - Orbit

View from above orbital plane
View from above orbital plane
View from above satellite
View from above satellite

Ground track
Ground track

The orbit is defined by the following mean orbital elements,

1 58783U          26145.01597302 +.00000000 +00000-0 +61233-4 0 00008
2 58783  53.1617   3.2425 0001159  71.1232 288.9896 15.34390934    05
Epoch (UTC): 25 May 2026 00:23:00
Eccentricity: 0.0001159
inclination: 53.1617°
perigee height: 462 km
apogee height: 464 km
right ascension of ascending node: 3.2425°
argument of perigee: 71.1232°
revolutions per day: 15.34390934
mean anomaly at epoch: 288.9896°

The dashed part of the orbit path shows where the satellite is in the earth's shadow,  

DLR